Location: Brienzwiler
(46.7508°N, 8.1014°E)
Time: 17:14:52
(UTC+00:00)

COSMOS 2428 - Pass Details

Date: 05 July 2020
Orbit: 844 x 859 km, 70.9° (Epoch: 11 August)

Event Time Altitude Azimuth Distance (km) Brightness Sun altitude
Exits shadow 21:57:25 - 220° (SW) 3,365 5.6 -17.3°
Reaches altitude 10° 21:59:51 10° 225° (SW) 2,460 4.9 -17.5°
Maximum altitude 22:05:22 54° 302° (WNW) 1,023 3.4 -17.8°
Drops below altitude 10° 22:10:56 10° 20° (NNE) 2,478 5.8 -18.2°
Sets 22:13:28 0° 25° (NNE) 3,419 6.6 -18.3°
